Satellite: OKEAN-4 Catalog number: 23317 Epoch time: 10308.74595704 Element set: 384 Inclination: 082.5411 deg RA of node: 222.6525 deg Eccentricity: 0.0023140 Arg of perigee: 135.1454 deg Mean anomaly: 225.1654 deg Mean motion: 14.82887409 rev/day Decay rate: 3.27e-06 rev/day^2 Epoch rev: 86728 Checksum: 295
Satellite: NOAA-14 Catalog number: 23455 Epoch time: 10307.70278095 Element set: 0253 Inclination: 098.8700 deg RA of node: 027.4100 deg Eccentricity: 0.0009044 Arg of perigee: 195.5856 deg Mean anomaly: 164.5050 deg Mean motion: 14.13798679 rev/day Decay rate: -2.2e-07 rev/day^2 Epoch rev: 81721 Checksum: 296
Satellite: NOAA-15 Catalog number: 25338 Epoch time: 10307.82686143 Element set: 0581 Inclination: 098.6343 deg RA of node: 292.3523 deg Eccentricity: 0.0011269 Arg of perigee: 032.9335 deg Mean anomaly: 327.2514 deg Mean motion: 14.24863522 rev/day Decay rate: 2.7e-07 rev/day^2 Epoch rev: 64863 Checksum: 301
Satellite: RESURS Catalog number: 25394 Epoch time: 10307.59256407 Element set: 0644 Inclination: 098.3015 deg RA of node: 318.0628 deg Eccentricity: 0.0001405 Arg of perigee: 132.5567 deg Mean anomaly: 227.5730 deg Mean motion: 14.24214129 rev/day Decay rate: 7.0e-08 rev/day^2 Epoch rev: 64019 Checksum: 273
Satellite: FENGYUN1 Catalog number: 25730 Epoch time: 10307.70362148 Element set: 175 Inclination: 098.7994 deg RA of node: 269.1108 deg Eccentricity: 0.0020184 Arg of perigee: 232.5763 deg Mean anomaly: 127.3569 deg Mean motion: 14.08376328 rev/day Decay rate: 1.087e-05 rev/day^2 Epoch rev: 59132 Checksum: 308
Satellite: OKEAN-0 Catalog number: 25860 Epoch time: 10307.67802270 Element set: 0141 Inclination: 097.8532 deg RA of node: 275.7823 deg Eccentricity: 0.0001437 Arg of perigee: 052.8351 deg Mean anomaly: 307.2979 deg Mean motion: 14.73677657 rev/day Decay rate: 1.02e-06 rev/day^2 Epoch rev: 60744 Checksum: 301
Satellite: NOAA-16 Catalog number: 26536 Epoch time: 10307.62343890 Element set: 0057 Inclination: 099.1644 deg RA of node: 328.3391 deg Eccentricity: 0.0009921 Arg of perigee: 308.6555 deg Mean anomaly: 051.3743 deg Mean motion: 14.12583119 rev/day Decay rate: 1.46e-06 rev/day^2 Epoch rev: 52151 Checksum: 295
Satellite: NOAA-17 Catalog number: 27453 Epoch time: 10307.87524112 Element set: 0048 Inclination: 098.4146 deg RA of node: 352.5697 deg Eccentricity: 0.0012747 Arg of perigee: 089.1265 deg Mean anomaly: 271.1363 deg Mean motion: 14.24205844 rev/day Decay rate: 2.35e-06 rev/day^2 Epoch rev: 43458 Checksum: 304
Satellite: NOAA-18 Catalog number: 28654 Epoch time: 10307.88626590 Element set: 0538 Inclination: 098.9663 deg RA of node: 253.8462 deg Eccentricity: 0.0014796 Arg of perigee: 022.7260 deg Mean anomaly: 337.4561 deg Mean motion: 14.11404485 rev/day Decay rate: 3.6e-07 rev/day^2 Epoch rev: 28114 Checksum: 319
Satellite: NOAA-19 Catalog number: 33591 Epoch time: 10307.90475242 Element set: 0734 Inclination: 098.8015 deg RA of node: 247.1345 deg Eccentricity: 0.0013292 Arg of perigee: 253.4626 deg Mean anomaly: 106.5116 deg Mean motion: 14.11098430 rev/day Decay rate: 1.76e-06 rev/day^2 Epoch rev: 08961 Checksum: 290
/EX SB KEPS @ AMSAT $ORB10308.M Orbital Elements 10308.MISC
HR AMSAT ORBITAL ELEMENTS FOR MANNED AND MISCELLANEOUS SATELLITES FROM WA5QGD FORT WORTH,TX November 4, 2010 BID: ORB10308.M TO ALL RADIO AMATEURS BT
Satellite: HUBBLE Catalog number: 20580 Epoch time: 10307.67721778 Element set: 671 Inclination: 028.4691 deg RA of node: 049.1646 deg Eccentricity: 0.0003439 Arg of perigee: 240.8916 deg Mean anomaly: 119.1353 deg Mean motion: 15.01080128 rev/day Decay rate: 5.48e-06 rev/day^2 Epoch rev: 92573 Checksum: 295
Satellite: ISS Catalog number: 25544 Epoch time: 10309.02977303 Element set: 214 Inclination: 051.6457 deg RA of node: 229.9395 deg Eccentricity: 0.0008070 Arg of perigee: 159.0373 deg Mean anomaly: 288.5994 deg Mean motion: 15.72316712 rev/day Decay rate: 2.3092e-04 rev/day^2 Epoch rev: 68562 Checksum: 311
Satellite: CO-58 Catalog number: 28895 Epoch time: 10307.59235248 Element set: 0720 Inclination: 097.9933 deg RA of node: 187.2894 deg Eccentricity: 0.0017546 Arg of perigee: 204.4878 deg Mean anomaly: 155.5462 deg Mean motion: 14.59956374 rev/day Decay rate: 9.4e-07 rev/day^2 Epoch rev: 26732 Checksum: 363
Satellite: FALCON Catalog number: 30776 Epoch time: 10307.97168439 Element set: 0956 Inclination: 035.4342 deg RA of node: 275.4889 deg Eccentricity: 0.0001669 Arg of perigee: 318.6285 deg Mean anomaly: 041.4310 deg Mean motion: 15.03922668 rev/day Decay rate: 8.55e-06 rev/day^2 Epoch rev: 20111 Checksum: 307
Satellite: MAST Catalog number: 31126 Epoch time: 10307.61283828 Element set: 2 Inclination: 097.9236 deg RA of node: 342.3046 deg Eccentricity: 0.0094601 Arg of perigee: 152.0250 deg Mean anomaly: 208.6071 deg Mean motion: 14.53635906 rev/day Decay rate: -4.4e-07 rev/day^2 Epoch rev: 18831 Checksum: 263
Satellite: CAPE1 Catalog number: 31130 Epoch time: 10308.55667062 Element set: 23 Inclination: 097.9233 deg RA of node: 340.3368 deg Eccentricity: 0.0103336 Arg of perigee: 158.1138 deg Mean anomaly: 202.4527 deg Mean motion: 14.52244845 rev/day Decay rate: 2.53e-06 rev/day^2 Epoch rev: 18803 Checksum: 266
Satellite: COMPASS Catalog number: 32787 Epoch time: 10307.25974546 Element set: 0822 Inclination: 097.8790 deg RA of node: 009.9932 deg Eccentricity: 0.0015086 Arg of perigee: 188.9063 deg Mean anomaly: 171.1875 deg Mean motion: 14.82022366 rev/day Decay rate: 1.90e-06 rev/day^2 Epoch rev: 13609 Checksum: 321
Satellite: AAUSAT2 Catalog number: 32788 Epoch time: 10308.39666888 Element set: 811 Inclination: 097.8806 deg RA of node: 011.2738 deg Eccentricity: 0.0014996 Arg of perigee: 185.5158 deg Mean anomaly: 174.5888 deg Mean motion: 14.82177080 rev/day Decay rate: 3.45e-06 rev/day^2 Epoch rev: 13627 Checksum: 347
Satellite: DO-64 Catalog number: 32789 Epoch time: 10307.71350816 Element set: 0830 Inclination: 097.8876 deg RA of node: 011.2439 deg Eccentricity: 0.0015371 Arg of perigee: 186.6219 deg Mean anomaly: 173.4778 deg Mean motion: 14.82401420 rev/day Decay rate: 5.98e-06 rev/day^2 Epoch rev: 13617 Checksum: 320
Satellite: CO-66 Catalog number: 32791 Epoch time: 10307.16786708 Element set: 0812 Inclination: 097.8817 deg RA of node: 009.8988 deg Eccentricity: 0.0015686 Arg of perigee: 188.1287 deg Mean anomaly: 171.9653 deg Mean motion: 14.81785421 rev/day Decay rate: 4.96e-06 rev/day^2 Epoch rev: 13603 Checksum: 357
Satellite: RS-30 Catalog number: 32953 Epoch time: 10308.50260998 Element set: 189 Inclination: 082.4994 deg RA of node: 302.4287 deg Eccentricity: 0.0019186 Arg of perigee: 152.1720 deg Mean anomaly: 208.0394 deg Mean motion: 12.43008965 rev/day Decay rate: 1.0e-07 rev/day^2 Epoch rev: 11117 Checksum: 286
Satellite: TACSAT-3 Catalog number: 35001 Epoch time: 10308.79716831 Element set: 423 Inclination: 040.4537 deg RA of node: 088.5826 deg Eccentricity: 0.0023055 Arg of perigee: 336.4433 deg Mean anomaly: 023.5328 deg Mean motion: 15.43409483 rev/day Decay rate: 6.086e-05 rev/day^2 Epoch rev: 8235 Checksum: 287
Satellite: PHARMSAT Catalog number: 35002 Epoch time: 10307.80436774 Element set: 0401 Inclination: 040.4697 deg RA of node: 092.1613 deg Eccentricity: 0.0025567 Arg of perigee: 332.0965 deg Mean anomaly: 027.8473 deg Mean motion: 15.43748049 rev/day Decay rate: 5.264e-05 rev/day^2 Epoch rev: 08222 Checksum: 285
Satellite: HAWKSAT1 Catalog number: 35003 Epoch time: 10308.52851415 Element set: 430 Inclination: 040.4597 deg RA of node: 077.5741 deg Eccentricity: 0.0023839 Arg of perigee: 358.5588 deg Mean anomaly: 001.5172 deg Mean motion: 15.48652674 rev/day Decay rate: 1.4000e-04 rev/day^2 Epoch rev: 8245 Checksum: 284
Satellite: CP6 Catalog number: 35004 Epoch time: 10307.77999232 Element set: 428 Inclination: 040.4622 deg RA of node: 079.7812 deg Eccentricity: 0.0022705 Arg of perigee: 357.9288 deg Mean anomaly: 002.1425 deg Mean motion: 15.50175253 rev/day Decay rate: 1.7016e-04 rev/day^2 Epoch rev: 8235 Checksum: 289
Satellite: AEROCUB3 Catalog number: 35005 Epoch time: 10307.71164106 Element set: 0516 Inclination: 040.4645 deg RA of node: 066.0178 deg Eccentricity: 0.0023766 Arg of perigee: 027.0258 deg Mean anomaly: 333.1794 deg Mean motion: 15.67251895 rev/day Decay rate: 1.08159e-03 rev/day^2 Epoch rev: 08250 Checksum: 288
Satellite: CASTOR Catalog number: 35694 Epoch time: 10230.44082147 Element set: 655 Inclination: 051.5930 deg RA of node: 222.0149 deg Eccentricity: 0.0004218 Arg of perigee: 308.0851 deg Mean anomaly: 053.0105 deg Mean motion: 16.48877011 rev/day Decay rate: 7.179566e-02 rev/day^2 Epoch rev: 6110 Checksum: 273
Satellite: METEOR-M Catalog number: 35865 Epoch time: 10308.59602498 Element set: 804 Inclination: 098.7405 deg RA of node: 001.2630 deg Eccentricity: 0.0002336 Arg of perigee: 341.0760 deg Mean anomaly: 019.0304 deg Mean motion: 14.21832629 rev/day Decay rate: 1.76e-06 rev/day^2 Epoch rev: 5867 Checksum: 279
Satellite: RS-38 Catalog number: 35869 Epoch time: 10308.62245197 Element set: 817 Inclination: 098.7403 deg RA of node: 001.3300 deg Eccentricity: 0.0004213 Arg of perigee: 329.9413 deg Mean anomaly: 030.1492 deg Mean motion: 14.21992457 rev/day Decay rate: 1.77e-06 rev/day^2 Epoch rev: 5868 Checksum: 300
/EX